Flag for Italy Weather past 2 weeks in Modena, Italy

Now
39 °F

Fog.


Feels Like: 39 °F
Forecast: 38 / 53 °F
Wind: 2 mph from North

Location: Bologna / Borgo Panigale

Current Time: Dec 22, 2014 at 11:11:12 PM

Latest Report: Dec 22, 2014 at 10:20 PM


Visibility: 1 mi

Pressure: 30.39 "Hg

Humidity: 100%

Dew point: 39 °F

Location of ModenaLocation

Historic Weather in Modena — Graph

°F

Modena temperature yesterday

Maximum temperature yesterday: 43 °F (at 12:20 AM)
Minimum temperature yesterday: 41 °F (at 1:50 AM)
Average temperature yesterday: 42 °F

Past Weeks' High & Low Weather Summary

 TemperatureHumidityPressure
High55 °F (Dec 8, 1:20 PM)100% (Dec 8, 6:50 AM)30.48 "Hg (Dec 8, 6:50 AM)
Low34 °F (Dec 11, 7:50 AM)62% (Dec 11, 12:50 PM)29.80 "Hg (Dec 16, 4:20 PM)
Average43 °F91%30.13 "Hg
* Reported Dec 7 9:20 PM — Dec 22 9:20 PM, Modena, Weather by CustomWeather, © 2014

Note: Actual official high and low records may vary slightly from our data, if they occured in-between our weather recording intervals... More about our weather records

Advertising

Modena weather history for previous 24 hours

 ConditionsComfort  
Time TempWeatherWind HumidityBarometerVisibility
9:20 PM
Dec 22
39 °FFog.1 mph100%30.42 "Hg1 mi
8:50 PM39 °FFog.No wind100%30.39 "Hg1 mi
8:20 PM39 °FFog.1 mph100%30.42 "Hg1 mi
7:50 PM39 °FFog.1 mph100%30.39 "Hg1 mi
7:20 PM39 °FFog.2 mph100%30.39 "Hg2 mi
6:50 PM39 °FFog.2 mph100%30.39 "Hg2 mi
6:20 PM39 °FFog.3 mph100%30.39 "Hg2 mi
5:50 PM39 °FFog.2 mph100%30.39 "Hg2 mi
5:20 PM39 °FFog.2 mph100%30.39 "Hg2 mi
4:50 PM39 °FFog.2 mph100%30.39 "Hg3 mi
4:20 PM39 °FFog.5 mph100%30.39 "Hg3 mi
3:50 PM39 °FScattered clouds.3 mph100%30.36 "Hg4 mi
3:20 PM41 °FScattered clouds.3 mph93%30.36 "Hg4 mi
2:50 PM41 °FScattered clouds.6 mph93%30.36 "Hg4 mi
2:20 PM41 °FScattered clouds.5 mph93%30.36 "Hg4 mi
1:50 PM39 °FFog.3 mph100%30.39 "Hg3 mi
1:20 PM39 °FFog.2 mph100%30.39 "Hg3 mi
12:50 PM39 °FFog.3 mph100%30.42 "Hg2 mi
12:20 PM39 °FFog.3 mph100%30.42 "Hg2 mi
11:50 AM39 °FFog.3 mph93%30.42 "Hg2 mi
11:20 AM37 °FFog.5 mph100%30.42 "Hg2 mi
10:50 AM37 °FFog.5 mph93%30.45 "Hg1 mi
10:20 AM37 °FFog.6 mph100%30.45 "Hg1 mi
9:50 AM37 °FFog.5 mph100%30.45 "Hg1 mi
9:20 AM37 °FFog.6 mph100%30.45 "Hg1 mi
8:50 AM37 °FFog.5 mph100%30.45 "Hg2 mi
8:20 AM37 °FFog.6 mph100%30.45 "Hg2 mi
7:50 AM37 °FFog.6 mph100%30.42 "Hg2 mi
7:20 AM37 °FFog.5 mph100%30.42 "Hg2 mi
6:50 AM37 °FFog.6 mph100%30.42 "Hg2 mi
6:20 AM37 °FFog.6 mph100%30.42 "Hg2 mi
5:50 AM37 °FFog.6 mph100%30.42 "Hg2 mi
5:20 AM39 °FFog.7 mph93%30.42 "Hg1 mi
4:20 AM39 °FFog.8 mph100%30.42 "Hg1 mi
3:50 AM39 °FFog.6 mph100%30.45 "Hg1 mi
3:20 AM39 °FFog.3 mph100%30.45 "Hg1 mi
2:50 AM39 °FFog.7 mph100%30.45 "Hg2 mi
2:20 AM41 °FFog.3 mph100%30.48 "Hg2 mi
1:50 AM41 °FFog.3 mph100%30.48 "Hg2 mi
1:20 AM41 °FFog.5 mph93%30.45 "Hg2 mi
12:50 AM41 °FFog.6 mph100%30.48 "Hg2 mi
12:20 AM41 °FFog.6 mph100%30.48 "Hg2 mi
11:50 PM
Dec 21
41 °FFog.6 mph100%30.48 "Hg2 mi
11:20 PM41 °FFog.7 mph100%30.48 "Hg2 mi
Weather by CustomWeather, © 2014

See weather overviewHow to use our weather pages